sat.trackr.live / text

‹ back to catalog

STARLINK-5388

NORAD 54844 · 2022-177AA

PAYLOAD ACTIVE UNKNOWN

§ Identity

Operator
Country
US
Launch date
2022-12-28
Launch site
AFETR
Launch vehicle
Mass (kg)
RCS (m²)

Purposes: comms

External: N2YO · Heavens-Above · Gunter

§ Orbital elements

Epoch: 2026-05-25T04:05:15.952128Z

Period
94.27 min
Inclination
43.0072°
Eccentricity
0.0001834
Mean motion
15.27578976 rev/d
Perigee alt
481.8 km
Apogee alt
484.3 km
Semi-major
6,861.2 km
B*
1.5057e-5
RAAN
63.8079°
Arg perigee
275.8864°
Mean anomaly
84.1779°
Rev number
18,862

§ Raw data

STARLINK-53881 54844U 22177AA  26145.17032352  .00000152  00000+0  15057-4 0  99942 54844  43.0072  63.8079 0001834 275.8864  84.1779 15.27578976188620

JSON: /api/v1/satellites/54844 · /tle

For live sub-satellite position, see the globe view (requires WebGL).

§ Visibility from observer

Set your observer location to see the next 7 days of passes ≥ 10°. The values pass through the URL so the page stays shareable.

No JS? Fill the form by hand. The geolocation button needs JavaScript.